Location: Ocean City
(38.3360°N, 75.0850°W)
Time: 08:57:39
(UTC-05:00)

Explorer 11/Cluster Stage 4 - Pass Details

Date: 18 November 2019
Orbit: 467 x 1259 km, 28.8° (Epoch: 06 December)

Event Time Altitude Azimuth Distance (km) Brightness Sun altitude
Rises 23:51:55 0° 262° (W) 3,834 - -70.8°
Reaches altitude 10° 23:54:48 10° 254° (WSW) 2,981 - -70.7°
Maximum altitude 00:01:26 34° 192° (SSW) 1,880 - -70.5°
Drops below altitude 10° 00:08:37 10° 132° (SE) 3,227 - -70.2°
Sets 00:11:52 0° 124° (ESE) 4,189 - -70.0°
